TimeCST,TemperatureF,Dew PointF,Humidity,Sea Level PressureIn,VisibilityMPH,Wind Direction,Wind SpeedMPH,Gust SpeedMPH,PrecipitationIn,Events,Conditions,WindDirDegrees,DateUTC
12:53 AM,39.0,32.0,76,30.27,10.0,Calm,Calm,-,N/A,,Clear,0,2013-03-08 06:53:00
1:53 AM,39.9,30.9,70,30.26,10.0,Calm,Calm,-,N/A,,Clear,0,2013-03-08 07:53:00
2:53 AM,37.0,30.9,79,30.26,10.0,Calm,Calm,-,N/A,,Clear,0,2013-03-08 08:53:00
3:53 AM,37.9,30.9,76,30.27,10.0,North,3.5,-,N/A,,Clear,10,2013-03-08 09:53:00
4:53 AM,37.9,30.9,76,30.28,10.0,Calm,Calm,-,N/A,,Clear,0,2013-03-08 10:53:00
5:53 AM,37.9,30.9,76,30.30,10.0,Calm,Calm,-,N/A,,Clear,0,2013-03-08 11:53:00
6:53 AM,39.0,33.1,79,30.32,10.0,Calm,Calm,-,N/A,,Clear,0,2013-03-08 12:53:00
7:53 AM,44.1,33.1,65,30.34,10.0,NNE,4.6,-,N/A,,Clear,30,2013-03-08 13:53:00
8:53 AM,48.9,32.0,52,30.35,10.0,Variable,3.5,-,N/A,,Clear,0,2013-03-08 14:53:00
9:53 AM,52.0,30.9,45,30.34,10.0,ENE,4.6,-,N/A,,Clear,60,2013-03-08 15:53:00
10:53 AM,57.0,30.0,36,30.32,10.0,ESE,3.5,-,N/A,,Clear,110,2013-03-08 16:53:00
11:53 AM,63.0,28.0,27,30.30,10.0,NW,4.6,-,N/A,,Clear,320,2013-03-08 17:53:00
12:53 PM,66.0,21.9,19,30.26,10.0,NE,6.9,-,N/A,,Clear,40,2013-03-08 18:53:00
1:53 PM,68.0,19.0,15,30.25,10.0,NNE,5.8,-,N/A,,Clear,20,2013-03-08 19:53:00
2:53 PM,70.0,21.0,16,30.23,10.0,Variable,3.5,-,N/A,,Clear,0,2013-03-08 20:53:00
3:53 PM,70.0,21.9,16,30.22,10.0,Calm,Calm,-,N/A,,Clear,0,2013-03-08 21:53:00
4:53 PM,69.1,24.1,18,30.21,10.0,NE,3.5,-,N/A,,Clear,50,2013-03-08 22:53:00
5:53 PM,64.0,24.1,22,30.23,10.0,Calm,Calm,-,N/A,,Clear,0,2013-03-08 23:53:00
6:53 PM,57.0,30.9,37,30.23,10.0,Calm,Calm,-,N/A,,Clear,0,2013-03-09 00:53:00
7:53 PM,54.0,32.0,43,30.23,10.0,Calm,Calm,-,N/A,,Clear,0,2013-03-09 01:53:00
8:53 PM,55.0,30.0,38,30.24,10.0,NW,4.6,-,N/A,,Clear,320,2013-03-09 02:53:00
9:53 PM,55.0,28.9,37,30.23,10.0,Calm,Calm,-,N/A,,Clear,0,2013-03-09 03:53:00
10:53 PM,51.1,34.0,52,30.23,10.0,Calm,Calm,-,N/A,,Clear,0,2013-03-09 04:53:00
11:53 PM,46.0,34.0,63,30.22,10.0,ENE,3.5,-,N/A,,Clear,70,2013-03-09 05:53:00